contact:dominique.lefevre@mio.osupytheas.fr, maurice.libes@osupytheas.fr
Project:EMSO Ligure-ouest http://www.emso-fr.org/EMSO-France
Sensor Aquadopp, line 13 Serial AQD14315 
DOI : "https://doi.org/10.17882/74513; https://doi.org/10.17882/83244" 
Title:EMSO Ligure Ouest : Data ligne ALBATROSS capteur AQUADOPP - deploiement 2021
Id,Date,Profondeur,Latitude,Longitude,X_East,Y_North,Z_Up,Amplitude_X,Amplitude_Y,Amplitude_Z,Batterie,SoundSpeed,Heading,Pitch,Roll,Pressure,Temperature,Speed,Direction
, , m, degrees North, degrees East, m.s-1, m.s-1,m.s-1, 1, 1, 1, Volt, m.s-1, degree, degree, degree, dbar, degree_C, m.s-1, degree
13,2021-12-23T22:00:00,2400.0,42.79,6.0312,-0.001,0.051,-0.03,61.0,55.0,55.0,12.5,1504.8,314.8,-0.1,-0.2,2394.811,13.33,0.051,358.9
13,2021-12-23T22:30:00,2400.0,42.79,6.0312,-0.001,0.05,-0.032,61.0,56.0,56.0,12.5,1504.8,313.6,-0.5,-0.3,2394.767,13.33,0.05,358.9
13,2021-12-23T23:00:00,2400.0,42.79,6.0312,-0.015,0.033,-0.004,63.0,57.0,57.0,12.5,1504.8,308.1,-0.5,-0.4,2394.776,13.33,0.036,335.6
13,2021-12-23T23:30:00,2400.0,42.79,6.0312,0.023,0.032,-0.016,63.0,55.0,60.0,12.5,1504.8,312.1,-0.6,-0.4,2394.718,13.33,0.039,35.7
13,2021-12-24T00:00:00,2400.0,42.79,6.0312,0.003,0.042,-0.005,60.0,56.0,55.0,12.5,1504.8,310.8,-0.3,-0.3,2394.705,13.33,0.042,4.1
13,2021-12-24T00:30:00,2400.0,42.79,6.0312,-0.008,0.057,0.011,60.0,59.0,56.0,12.5,1504.8,311.3,-0.4,-0.4,2394.677,13.33,0.057,352.0
13,2021-12-24T01:00:00,2400.0,42.79,6.0312,0.007,0.045,-0.021,60.0,55.0,56.0,12.5,1504.8,317.8,-0.7,-0.4,2394.704,13.33,0.045,8.8
13,2021-12-24T01:30:00,2400.0,42.79,6.0312,0.003,0.027,-0.022,63.0,55.0,59.0,12.5,1504.8,316.3,-0.4,-0.3,2394.643,13.33,0.027,6.3
13,2021-12-24T02:00:00,2400.0,42.79,6.0312,0.009,0.041,0.0,62.0,55.0,60.0,12.5,1504.8,311.6,-0.4,-0.3,2394.687,13.33,0.041,12.4
13,2021-12-24T02:30:00,2400.0,42.79,6.0312,0.011,0.028,-0.006,65.0,57.0,59.0,12.5,1504.8,309.9,-0.3,-0.4,2394.684,13.33,0.03,21.4
13,2021-12-24T03:00:00,2400.0,42.79,6.0312,0.026,0.034,-0.029,63.0,56.0,55.0,12.5,1504.8,313.1,-0.3,-0.3,2394.627,13.33,0.042,37.4
13,2021-12-24T03:30:00,2400.0,42.79,6.0312,0.004,0.01,0.0,62.0,54.0,55.0,12.5,1504.8,313.0,-0.4,-0.4,2394.63,13.33,0.01,21.8
13,2021-12-24T04:00:00,2400.0,42.79,6.0312,0.008,0.026,-0.006,60.0,57.0,55.0,12.5,1504.8,310.1,-0.2,-0.4,2394.68,13.33,0.027,17.1
13,2021-12-24T04:30:00,2400.0,42.79,6.0312,0.006,0.018,-0.012,64.0,56.0,55.0,12.5,1504.8,307.1,-0.2,-0.4,2394.655,13.33,0.018,18.4
13,2021-12-24T05:00:00,2400.0,42.79,6.0312,0.008,0.016,-0.01,64.0,57.0,60.0,12.5,1504.8,308.1,-0.3,-0.4,2394.632,13.33,0.017,26.6
13,2021-12-24T05:30:00,2400.0,42.79,6.0312,0.005,0.025,0.008,65.0,58.0,58.0,12.5,1504.8,307.0,-0.3,-0.4,2394.63,13.33,0.025,11.3
13,2021-12-24T06:00:00,2400.0,42.79,6.0312,0.0,0.022,-0.012,60.0,53.0,58.0,12.5,1504.8,308.7,-0.4,-0.2,2394.698,13.33,0.022,0.0
13,2021-12-24T06:30:00,2400.0,42.79,6.0312,0.001,0.006,-0.005,60.0,56.0,55.0,12.5,1504.8,309.8,-0.3,-0.4,2394.722,13.33,0.006,9.5
13,2021-12-24T07:00:00,2400.0,42.79,6.0312,0.017,0.012,-0.011,62.0,54.0,56.0,12.5,1504.8,308.5,-0.2,-0.4,2394.736,13.33,0.02,54.8
13,2021-12-24T07:30:00,2400.0,42.79,6.0312,-0.001,0.004,0.007,63.0,56.0,59.0,12.5,1504.8,310.1,-0.4,-0.4,2394.743,13.33,0.004,346.0
13,2021-12-24T08:00:00,2400.0,42.79,6.0312,-0.016,0.002,0.007,62.0,57.0,57.0,12.5,1504.8,310.2,-0.4,-0.3,2394.737,13.33,0.016,277.1
13,2021-12-24T08:30:00,2400.0,42.79,6.0312,-0.001,-0.016,-0.011,64.0,58.0,57.0,12.5,1504.8,310.1,-0.3,-0.3,2394.805,13.33,0.016,183.6
13,2021-12-24T09:00:00,2400.0,42.79,6.0312,-0.01,0.007,-0.025,63.0,56.0,59.0,12.5,1504.8,309.1,-0.4,-0.2,2394.795,13.33,0.012,305.0
13,2021-12-24T09:30:00,2400.0,42.79,6.0312,-0.02,-0.005,-0.016,62.0,61.0,57.0,12.5,1504.8,312.1,-0.3,-0.4,2394.841,13.33,0.02,256.0
13,2021-12-24T10:00:00,2400.0,42.79,6.0312,-0.013,0.004,0.02,63.0,56.0,57.0,12.5,1504.8,312.5,-0.2,-0.3,2394.878,13.33,0.013,287.1
13,2021-12-24T10:30:00,2400.0,42.79,6.0312,-0.008,0.015,0.005,62.0,54.0,56.0,12.5,1504.8,313.0,-0.2,-0.3,2394.897,13.33,0.017,331.9
13,2021-12-24T11:00:00,2400.0,42.79,6.0312,-0.038,-0.006,0.014,64.0,55.0,58.0,12.5,1504.8,309.9,-0.3,-0.4,2394.872,13.33,0.038,261.0
13,2021-12-24T11:30:00,2400.0,42.79,6.0312,-0.034,0.009,0.001,62.0,54.0,58.0,12.5,1504.8,307.2,-0.2,-0.2,2394.853,13.33,0.035,284.8
13,2021-12-24T12:00:00,2400.0,42.79,6.0312,0.003,0.026,-0.028,62.0,57.0,56.0,12.5,1504.8,311.8,-0.2,-0.4,2394.811,13.33,0.026,6.6
13,2021-12-24T12:30:00,2400.0,42.79,6.0312,-0.02,0.054,-0.034,61.0,55.0,55.0,12.5,1504.8,313.8,-0.2,-0.3,2394.833,13.33,0.057,339.7
13,2021-12-24T13:00:00,2400.0,42.79,6.0312,-0.024,0.021,-0.017,61.0,55.0,57.0,12.5,1504.8,314.3,-0.2,-0.4,2394.794,13.33,0.031,311.2
13,2021-12-24T13:30:00,2400.0,42.79,6.0312,-0.018,0.041,-0.011,62.0,55.0,58.0,12.5,1504.8,312.3,-0.3,-0.4,2394.788,13.33,0.044,336.3
13,2021-12-24T14:00:00,2400.0,42.79,6.0312,-0.015,0.029,-0.02,61.0,54.0,58.0,12.5,1504.8,311.6,-0.2,-0.3,2394.768,13.33,0.032,332.6
13,2021-12-24T14:30:00,2400.0,42.79,6.0312,-0.014,0.042,0.004,62.0,55.0,57.0,12.5,1504.8,312.7,-0.3,-0.4,2394.77,13.33,0.044,341.6
13,2021-12-24T15:00:00,2400.0,42.79,6.0312,-0.024,0.046,0.011,65.0,58.0,58.0,12.5,1504.8,308.0,-0.2,-0.3,2394.784,13.33,0.051,332.4
13,2021-12-24T15:30:00,2400.0,42.79,6.0312,-0.022,0.033,-0.024,59.0,55.0,55.0,12.5,1504.8,305.4,-0.4,-0.3,2394.751,13.33,0.039,326.3
13,2021-12-24T16:00:00,2400.0,42.79,6.0312,-0.016,0.033,-0.013,64.0,56.0,58.0,12.5,1504.8,305.9,-0.1,-0.3,2394.729,13.33,0.036,334.1
13,2021-12-24T16:30:00,2400.0,42.79,6.0312,-0.018,0.036,-0.006,63.0,56.0,58.0,12.5,1504.8,308.1,-0.4,-0.3,2394.727,13.33,0.04,333.4
13,2021-12-24T17:00:00,2400.0,42.79,6.0312,-0.028,0.023,-0.024,64.0,57.0,61.0,12.5,1504.8,309.1,-0.1,-0.3,2394.691,13.33,0.036,309.4
13,2021-12-24T17:30:00,2400.0,42.79,6.0312,0.004,0.069,-0.023,63.0,56.0,55.0,12.5,1504.8,309.5,-0.1,-0.3,2394.691,13.33,0.069,3.3
13,2021-12-24T18:00:00,2400.0,42.79,6.0312,-0.002,0.041,-0.007,60.0,57.0,59.0,12.4,1504.8,311.3,-0.3,-0.3,2394.712,13.33,0.041,357.2
13,2021-12-24T18:30:00,2400.0,42.79,6.0312,0.004,0.039,0.014,63.0,57.0,59.0,12.5,1504.8,312.6,-0.3,-0.3,2394.712,13.33,0.039,5.9
13,2021-12-24T19:00:00,2400.0,42.79,6.0312,0.0,0.049,0.003,64.0,56.0,59.0,12.5,1504.8,309.8,-0.3,-0.3,2394.659,13.33,0.049,0.0
13,2021-12-24T19:30:00,2400.0,42.79,6.0312,0.013,0.044,0.018,65.0,56.0,57.0,12.5,1504.8,309.3,-0.3,-0.3,2394.682,13.33,0.045,16.5
13,2021-12-24T20:00:00,2400.0,42.79,6.0312,0.002,0.03,-0.011,65.0,56.0,58.0,12.5,1504.8,308.5,-0.2,-0.4,2394.693,13.33,0.03,3.8
13,2021-12-24T20:30:00,2400.0,42.79,6.0312,0.031,0.014,-0.01,62.0,56.0,59.0,12.5,1504.8,310.1,-0.2,-0.3,2394.727,13.33,0.034,65.7
13,2021-12-24T21:00:00,2400.0,42.79,6.0312,-0.001,0.011,0.009,66.0,57.0,60.0,12.5,1504.8,305.5,-0.2,-0.3,2394.782,13.33,0.011,354.8
13,2021-12-24T21:30:00,2400.0,42.79,6.0312,0.024,-0.007,-0.002,63.0,59.0,61.0,12.5,1504.8,305.7,-0.3,-0.3,2394.755,13.33,0.025,106.3
